Kuchera_Ratio
0.0 0.0 0.0 0.0 0.0 0.0 1.6 0.4 9.0 0.0 0.0 0.0 0.0 0.0 0.0 0.0 0.0 0.0 0.0 0.0 0.0 0.0 0.0 0.0 0.0 0.0 0.0 0.0 0.0 0.0 0.0 0.0 0.0 0.0 0.0 0.0 0.0 0.0 0.0 0.0 0.0 0.0 0.0 0.0
0.0 0.0 0.0 0.0 0.0 0.0 0.0 0.0 0.0 0.0 0.0 0.0 0.0 0.0 0.0 0.0 0.0 0.0 0.0 0.0 0.0 0.0 0.0 0.0 0.0 0.0 0.0 0.0 0.0 0.0 0.0 0.0 3.0 1.4 0.8 0.0 0.0 0.0 0.0 0.0 0.0 0.0 0.0 0.0
5.0 0.0 0.0 2.8 0.0 0.0 0.0 0.0 0.0 0.0 0.0 0.0 0.0 0.0 0.0 0.0 0.0 0.0 0.0 0.0 0.0 0.0 0.0 0.0 0.0 0.0 0.0 0.0 0.0 0.0 0.0 2.2 6.6 5.2 6.2 5.8 1.8 0.0 0.0 1.0 0.0 3.4 6.2 4.2
4.0 0.0 13.2 0.0 0.0 0.0 0.0 0.0 0.0 0.0 0.0 0.0 0.0 0.0 0.0 0.0 0.0 0.0 0.0 0.0 0.0 0.0 0.0 0.0 0.0 0.0 0.0 0.0 0.0 0.0 4.0 6.8 6.0 7.2 8.6 7.2 7.0 8.2 7.8 8.0 8.2 8.4 8.4 7.8
8.2 4.8 0.0 0.0 0.0 0.0 0.0 0.0 0.0 0.0 0.0 0.0 0.0 0.0 0.0 0.0 0.0 0.0 0.0 0.0 0.0 0.0 0.0 0.0 0.0 0.0 0.0 0.0 0.0 2.6 7.3 8.0 8.0 8.4 9.6 9.2 9.8 9.2 8.8 8.6 9.0 9.2 9.0 9.2
4.4 10.4 12.6 0.0 0.0 0.0 0.0 0.0 0.0 0.0 0.0 0.0 0.0 0.0 0.0 0.0 0.0 0.0 0.0 0.0 0.0 0.0 0.0 0.0 0.0 0.0 0.0 3.2 5.0 6.4 7.4 7.8 8.4 9.2 9.4 11.4 9.0 8.8 8.6 8.4 9.0 8.4 10.2 9.2
4.0 7.4 0.0 0.0 0.0 0.0 3.4 0.0 0.0 0.0 0.0 0.0 0.0 0.0 0.0 0.0 0.0 0.0 0.0 0.0 0.0 0.0 0.0 0.0 0.0 0.0 3.1 5.7 7.0 6.6 7.0 8.6 9.8 9.6 11.2 10.0 9.0 8.8 8.8 9.0 9.4 9.8 10.4 10.4
3.4 8.8 11.6 0.0 0.0 0.0 0.0 0.0 0.0 0.0 0.0 0.0 0.0 0.0 0.0 0.0 0.0 0.0 0.0 0.0 0.0 0.0 0.8 3.1 0.0 1.8 3.6 6.0 6.6 7.4 8.8 10.2 10.8 11.2 10.6 9.6 9.0 9.2 9.2 9.2 10.2 10.8 10.8 11.2
0.0 0.0 0.0 0.0 0.0 0.0 0.0 0.0 0.0 0.0 0.0 0.0 0.0 0.0 0.0 0.0 0.0 0.0 0.0 0.0 0.0 0.0 0.0 1.6 1.2 2.6 7.2 7.4 7.8 9.0 9.6 10.8 11.0 10.2 9.4 8.4 9.2 9.8 9.2 9.4 9.2 10.2 10.0 10.8
0.0 0.0 0.0 0.0 0.0 0.0 0.0 0.0 0.0 0.0 0.0 0.0 0.0 0.0 0.0 0.0 0.0 0.0 0.0 0.0 0.0 0.0 0.0 2.4 1.4 3.2 4.2 7.6 7.8 9.2 9.6 10.4 10.6 9.4 9.8 8.0 5.8 6.6 6.6 8.0 8.4 9.0 9.4 9.4
0.0 0.0 0.0 0.0 0.0 0.0 0.0 0.0 0.0 0.0 0.0 0.0 0.0 0.0 0.0 0.0 0.0 0.0 0.0 0.0 0.0 0.0 0.0 0.0 1.4 4.0 6.4 7.2 7.0 8.4 9.0 9.4 9.0 8.6 9.6 7.8 5.6 5.4 5.6 6.2 6.2 8.2 8.2 7.8
0.0 0.0 0.0 0.0 0.0 0.0 0.0 0.0 0.0 0.0 0.0 0.0 0.0 0.0 0.0 0.0 0.0 0.0 0.0 0.0 0.0 0.0 0.0 0.0 2.8 5.8 5.8 5.0 4.8 5.6 7.0 8.0 8.6 9.6 9.4 8.2 8.0 10.0 11.2 10.0 11.2 10.8 10.0 7.0
0.0 0.0 0.0 0.0 0.0 0.0 0.0 0.0 0.0 0.0 0.0 0.0 0.0 0.0 0.0 0.0 0.0 0.0 0.0 0.0 0.0 0.0 0.0 0.0 2.8 4.0 3.4 4.6 5.8 6.8 7.4 8.2 8.2 9.4 9.4 10.2 10.6 12.3 14.1 13.5 12.4 12.4 12.4 11.8
0.0 0.0 0.0 0.0 0.0 0.0 0.0 0.0 0.0 0.0 0.0 0.0 0.0 0.0 0.0 0.0 0.0 0.0 0.0 0.0 0.0 0.0 0.0 0.0 2.0 3.8 3.4 3.4 4.4 6.8 6.8 8.4 8.0 8.6 9.2 10.0 10.8 12.1 12.6 13.7 14.4 14.2 13.0 12.2
0.0 0.0 0.0 0.0 0.0 0.0 0.0 0.0 0.0 0.0 0.0 0.0 0.0 0.0 0.0 0.0 0.0 0.0 0.0 0.0 0.0 0.0 0.0 0.2 3.8 6.2 4.4 4.8 6.4 7.2 7.0 7.6 7.6 8.2 9.0 9.4 9.6 10.6 11.0 11.0 11.6 12.7 13.0 13.1
0.0 0.0 0.0 0.0 0.0 0.0 0.0 0.0 0.0 0.0 0.0 0.0 0.0 0.0 0.0 0.0 0.0 0.0 0.0 0.0 0.0 0.0 0.4 4.8 6.8 7.2 6.2 6.4 6.8 7.2 7.6 8.8 8.0 8.4 8.8 9.4 9.4 10.0 9.2 9.6 10.4 11.8 12.9 13.1
0.0 0.0 0.0 0.0 0.0 0.0 0.0 0.0 0.0 0.0 0.0 0.0 0.0 0.0 0.0 0.0 0.0 0.0 0.0 0.0 1.2 5.0 5.4 6.6 7.4 7.8 7.6 7.4 7.2 7.2 8.2 8.6 8.4 8.4 9.4 9.0 9.0 8.8 8.4 8.6 9.0 10.4 11.0 11.4
0.0 0.0 0.0 0.0 0.0 0.0 0.0 0.0 0.0 0.0 0.0 0.0 0.0 0.0 0.0 1.7 1.2 3.2 4.6 5.8 7.0 7.2 6.6 6.8 7.6 7.8 8.0 7.6 6.0 6.4 7.2 8.6 8.8 9.2 8.6 8.8 8.0 7.4 7.8 8.0 8.8 9.6 10.2 12.1
0.0 0.0 0.0 0.0 0.0 0.0 0.0 0.0 0.0 0.0 0.0 0.0 0.0 1.8 4.3 5.2 5.6 6.4 7.2 8.0 8.2 8.8 8.6 7.8 9.0 7.2 6.2 6.2 5.2 5.4 6.6 8.2 7.6 7.2 7.2 8.2 8.4 6.8 8.4 9.2 9.6 10.0 9.8 13.2
0.0 0.0 0.0 0.0 0.0 0.0 0.0 0.0 0.0 0.0 0.3 1.7 5.2 6.4 6.8 6.6 7.0 8.0 8.0 8.2 6.0 3.8 6.6 7.6 7.8 6.6 6.4 7.0 7.4 4.8 6.4 7.6 7.6 7.4 8.0 7.8 8.4 9.0 8.8 9.4 9.4 10.2 11.0 12.1
0.0 1.4 4.3 4.3 4.2 4.7 2.9 3.2 5.4 5.8 5.7 5.7 6.6 6.8 7.2 7.4 7.8 7.7 9.0 7.8 6.6 5.4 5.2 7.8 5.4 5.4 4.8 5.2 4.0 5.0 6.4 7.8 7.8 6.2 8.6 8.6 9.0 10.0 10.4 10.6 11.2 10.6 10.8 11.8
7.0 7.0 7.5 7.9 8.0 7.9 7.0 6.0 5.0 6.2 6.4 6.6 6.2 6.6 8.0 8.8 8.8 8.2 6.2 3.4 3.8 6.8 6.2 6.2 4.6 5.0 3.8 6.4 2.4 5.2 6.0 6.6 7.0 6.6 8.0 8.8 9.2 9.8 10.4 11.0 11.4 10.6 10.6 11.2
7.0 7.0 7.4 7.8 7.4 7.4 6.8 7.0 6.8 6.6 7.2 7.0 7.4 7.8 7.6 6.2 5.2 7.2 8.4 2.6 1.2 5.6 4.0 4.8 5.4 6.8 7.0 6.6 6.4 7.4 7.2 7.8 8.0 7.8 8.0 8.4 8.6 9.0 9.4 10.4 10.2 10.2 11.0 11.8
5.2 4.2 6.0 5.4 3.6 3.2 5.2 4.6 4.4 5.4 6.8 7.0 7.4 7.4 3.8 6.2 5.4 0.4 0.0 4.0 4.8 7.4 5.0 6.2 7.2 7.4 8.2 7.8 7.8 8.2 8.2 8.2 8.0 8.2 8.0 8.4 8.6 9.0 8.8 9.2 9.8 9.6 10.6 12.0
1.8 2.6 2.8 2.8 0.8 0.2 0.0 0.0 1.4 4.2 5.6 4.6 5.0 4.6 2.2 1.0 4.2 2.4 3.4 4.4 8.4 6.0 6.2 8.4 9.0 8.8 8.8 8.2 8.6 9.0 8.4 8.4 8.4 8.4 8.8 9.0 9.2 9.2 9.2 9.0 9.8 10.6 12.0 12.2
0.4 1.0 0.0 0.0 0.0 0.0 0.2 1.8 3.0 3.8 4.8 7.4 6.4 6.0 5.4 4.2 4.2 4.6 6.4 6.6 7.0 6.2 8.0 9.2 10.0 10.0 8.8 8.2 8.8 8.6 8.2 7.8 8.2 8.2 8.6 8.6 9.0 9.2 9.8 10.0 10.6 11.6 11.8 12.2
0.0 2.8 0.4 0.4 0.0 0.0 1.2 2.4 4.2 5.2 5.4 6.0 6.6 7.0 7.0 7.6 7.4 7.2 8.0 8.2 7.6 7.6 8.2 9.2 9.4 9.2 8.2 8.6 8.8 8.8 8.6 8.4 8.6 8.8 9.2 9.2 9.6 9.8 10.2 10.6 10.8 11.6 12.3 12.9